,,,PA_Meas_PMT16A,,PR_Meas_QMR101_102,,RH_Meas_QMH101,,SR_Meas_QMS101,,TA_Meas_QMH101,,GenWind,,GenWind,
date,time,status,PA,status,PR,status,RH,status,SR,status,TA,status,DirAvg,status,SpdAvg,
2012-05-20, 00:00:04,VALID,1004.14,VALID,0,VALID,85.1993,VALID,0,VALID,26.4687,VALID,299,VALID,0.0808594,
2012-05-20, 00:01:04,VALID,1004.15,VALID,0,VALID,85.2985,VALID,0,VALID,26.4901,VALID,300,VALID,0.229687,
2012-05-20, 00:02:04,VALID,1004.12,VALID,0,VALID,85.2299,VALID,0,VALID,26.4472,VALID,293,VALID,0.566797,
2012-05-20, 00:03:04,VALID,1004.15,VALID,0,VALID,85.207,VALID,0,VALID,26.4492,VALID,304,VALID,0.896875,
2012-05-20, 00:04:04,VALID,1004.14,VALID,0,VALID,85.329,VALID,0,VALID,26.4492,VALID,332,VALID,0.577344,
2012-05-20, 00:05:04,VALID,1004.15,VALID,0,VALID,84.9705,VALID,0,VALID,26.4297,VALID,278,VALID,1.56211,
2012-05-20, 00:06:04,VALID,1004.15,VALID,0,VALID,85.329,VALID,0,VALID,26.4297,VALID,261,VALID,0.375781,
2012-05-20, 00:07:04,VALID,1004.13,VALID,0,VALID,85.3443,VALID,0,VALID,26.4297,VALID,295,VALID,0.696875,
2012-05-20, 00:08:04,VALID,1004.13,VALID,0,VALID,85.2299,VALID,0,VALID,26.4082,VALID,288,VALID,1.37891,
2012-05-20, 00:09:04,VALID,1004.1,VALID,0,VALID,85.3061,VALID,0,VALID,26.3887,VALID,302,VALID,1.66133,
2012-05-20, 00:10:04,VALID,1004.13,VALID,0,VALID,85.2756,VALID,0,VALID,26.4687,VALID,306,VALID,0.338281,
2012-05-20, 00:11:04,VALID,1004.08,VALID,0,VALID,85.0773,VALID,0,VALID,26.4687,VALID,284,VALID,1.68359,
2012-05-20, 00:12:04,VALID,1004.08,VALID,0,VALID,85.1765,VALID,0,VALID,26.4687,VALID,307,VALID,1.04609,
2012-05-20, 00:13:04,VALID,1004.08,VALID,0,VALID,85.001,VALID,0,VALID,26.4881,VALID,299,VALID,1.18008,
2012-05-20, 00:14:04,VALID,1004.02,VALID,0,VALID,85.0391,VALID,0,VALID,26.5076,VALID,307,VALID,0.741406,
2012-05-20, 00:15:04,VALID,1003.99,VALID,0,VALID,85.0315,VALID,0,VALID,26.4881,VALID,302,VALID,0.580469,
2012-05-20, 00:16:04,VALID,1004,VALID,0,VALID,84.8408,VALID,0,VALID,26.4881,VALID,298,VALID,1.45391,
2012-05-20, 00:17:04,VALID,1003.97,VALID,0,VALID,84.7874,VALID,0,VALID,26.4881,VALID,284,VALID,0.696484,
2012-05-20, 00:18:04,VALID,1003.99,VALID,0,VALID,84.4212,VALID,0,VALID,26.4881,VALID,294,VALID,1.66562,
2012-05-20, 00:19:04,VALID,1004,VALID,0,VALID,84.528,VALID,0,VALID,26.5076,VALID,283,VALID,1.49102,
2012-05-20, 00:20:04,VALID,1004.02,VALID,0,VALID,84.2305,VALID,0,VALID,26.5056,VALID,285,VALID,1.2332,
2012-05-20, 00:21:04,VALID,1004,VALID,0,VALID,83.994,VALID,0,VALID,26.5466,VALID,292,VALID,1.71289,
2012-05-20, 00:22:04,VALID,1003.99,VALID,0,VALID,83.7727,VALID,0,VALID,26.5661,VALID,287,VALID,1.70859,
2012-05-20, 00:23:04,VALID,1004,VALID,0,VALID,83.8719,VALID,0,VALID,26.5661,VALID,271,VALID,1.08398,
2012-05-20, 00:24:04,VALID,1003.96,VALID,0,VALID,83.582,VALID,0,VALID,26.5835,VALID,299,VALID,1.06797,
2012-05-20, 00:25:04,VALID,1003.96,VALID,0,VALID,83.6583,VALID,0,VALID,26.603,VALID,307,VALID,1.25039,
2012-05-20, 00:26:04,VALID,1003.97,VALID,0,VALID,83.4828,VALID,0,VALID,26.603,VALID,293,VALID,1.12969,
2012-05-20, 00:27:04,VALID,1003.98,VALID,0,VALID,83.4065,VALID,0,VALID,26.6225,VALID,288,VALID,1.22227,
2012-05-20, 00:28:04,VALID,1003.94,VALID,0,VALID,83.46,VALID,0,VALID,26.6635,VALID,284,VALID,0.945313,
2012-05-20, 00:29:04,VALID,1003.93,VALID,0,VALID,83.3913,VALID,0,VALID,26.6635,VALID,315,VALID,0.844922,
2012-05-20, 00:30:04,VALID,1003.92,VALID,0,VALID,83.3837,VALID,0,VALID,26.642,VALID,300,VALID,1.04766,
2012-05-20, 00:31:04,VALID,1003.91,VALID,0,VALID,83.3303,VALID,0,VALID,26.6614,VALID,310,VALID,0.867578,
2012-05-20, 00:32:04,VALID,1003.89,VALID,0,VALID,83.4065,VALID,0,VALID,26.683,VALID,277,VALID,0.717578,
2012-05-20, 00:33:04,VALID,1003.86,VALID,0,VALID,82.8039,VALID,0,VALID,26.6614,VALID,276,VALID,1.78711,
2012-05-20, 00:34:04,VALID,1003.82,VALID,0,VALID,82.8649,VALID,0,VALID,26.7004,VALID,297,VALID,1.28242,
2012-05-20, 00:35:04,VALID,1003.85,VALID,0,VALID,83.1548,VALID,0,VALID,26.7199,VALID,303,VALID,0.519141,
2012-05-20, 00:36:04,VALID,1003.82,VALID,0,VALID,83.1395,VALID,0.0815089,VALID,26.7004,VALID,297,VALID,0.175,
2012-05-20, 00:37:04,VALID,1003.82,VALID,0,VALID,83.2387,VALID,0,VALID,26.6809,VALID,295,VALID,1.02969,
2012-05-20, 00:38:04,VALID,1003.83,VALID,0,VALID,83.2387,VALID,0,VALID,26.6614,VALID,295,VALID,1.04219,
2012-05-20, 00:39:04,VALID,1003.77,VALID,0,VALID,83.0709,VALID,0.0815089,VALID,26.6614,VALID,293,VALID,0.864844,
2012-05-20, 00:40:04,VALID,1003.77,VALID,0,VALID,83.4752,VALID,0,VALID,26.6614,VALID,294,VALID,0.182812,
2012-05-20, 00:41:04,VALID,1003.74,VALID,0,VALID,83.2158,VALID,0,VALID,26.642,VALID,306,VALID,0.908594,
2012-05-20, 00:42:04,VALID,1003.7,VALID,0,VALID,83.2997,VALID,0,VALID,26.642,VALID,300,VALID,0.598437,
2012-05-20, 00:43:04,VALID,1003.69,VALID,0,VALID,83.1624,VALID,0,VALID,26.642,VALID,285,VALID,1.5543,
2012-05-20, 00:44:04,VALID,1003.65,VALID,0,VALID,83.2235,VALID,0.0815089,VALID,26.642,VALID,324,VALID,0.589453,
2012-05-20, 00:45:04,VALID,1003.65,VALID,0,VALID,83.3913,VALID,0.0815089,VALID,26.642,VALID,273,VALID,0.784375,
2012-05-20, 00:46:04,VALID,1003.63,VALID,0,VALID,83.2997,VALID,0,VALID,26.6225,VALID,326,VALID,0.433203,
2012-05-20, 00:47:04,VALID,1003.61,VALID,0,VALID,83.3074,VALID,0,VALID,26.644,VALID,312,VALID,0.93125,
2012-05-20, 00:48:04,VALID,1003.61,VALID,0,VALID,83.6125,VALID,0,VALID,26.6225,VALID,347,VALID,0.435547,
2012-05-20, 00:49:04,VALID,1003.61,VALID,0,VALID,83.4294,VALID,0,VALID,26.6245,VALID,293,VALID,1.67578,
2012-05-20, 00:50:04,VALID,1003.57,VALID,0,VALID,83.727,VALID,0,VALID,26.603,VALID,313,VALID,0.450391,
2012-05-20, 00:51:04,VALID,1003.6,VALID,0,VALID,83.5744,VALID,0,VALID,26.605,VALID,317,VALID,0.660937,
2012-05-20, 00:52:04,VALID,1003.57,VALID,0,VALID,83.4218,VALID,0,VALID,26.603,VALID,315,VALID,0.571094,
2012-05-20, 00:53:04,VALID,1003.55,VALID,0,VALID,83.7041,VALID,0,VALID,26.603,VALID,26,VALID,0.653906,
2012-05-20, 00:54:04,VALID,1003.5,VALID,0,VALID,83.5439,VALID,0,VALID,26.562,VALID,284,VALID,0.870313,
2012-05-20, 00:55:04,VALID,1003.53,VALID,0,VALID,83.3989,VALID,0.0815089,VALID,26.5855,VALID,306,VALID,0.580859,
2012-05-20, 00:56:04,VALID,1003.46,VALID,0,VALID,83.3455,VALID,0,VALID,26.5835,VALID,328,VALID,0.898047,
2012-05-20, 00:57:04,VALID,1003.45,VALID,0,VALID,83.0632,VALID,0,VALID,26.5835,VALID,278,VALID,0.995313,
2012-05-20, 00:58:04,VALID,1003.42,VALID,0,VALID,83.1014,VALID,0,VALID,26.5835,VALID,257,VALID,0.773438,
2012-05-20, 00:59:04,VALID,1003.43,VALID,0,VALID,83.2387,VALID,0,VALID,26.5835,VALID,14,VALID,0.416406,
2012-05-20, 01:00:04,VALID,1003.42,VALID,0,VALID,83.4752,VALID,0.0815089,VALID,26.5641,VALID,13,VALID,0.402344,
2012-05-20, 01:01:04,VALID,1003.42,VALID,0,VALID,83.5973,VALID,0,VALID,26.5661,VALID,12,VALID,0.00585938,
2012-05-20, 01:02:04,VALID,1003.38,VALID,0,VALID,83.6812,VALID,0,VALID,26.5251,VALID,7,VALID,0,
2012-05-20, 01:03:04,VALID,1003.4,VALID,0,VALID,83.8261,VALID,0,VALID,26.5056,VALID,349,VALID,0,
2012-05-20, 01:04:04,VALID,1003.36,VALID,0,VALID,83.8414,VALID,0,VALID,26.4861,VALID,319,VALID,0.779297,
2012-05-20, 01:05:04,VALID,1003.37,VALID,0,VALID,83.8109,VALID,0,VALID,26.4881,VALID,293,VALID,0.849609,
2012-05-20, 01:06:04,VALID,1003.33,VALID,0,VALID,84.0474,VALID,0,VALID,26.4472,VALID,274,VALID,0.108203,
2012-05-20, 01:07:04,VALID,1003.29,VALID,0,VALID,83.9711,VALID,0,VALID,26.4492,VALID,274,VALID,0.152344,
2012-05-20, 01:08:04,VALID,1003.28,VALID,0,VALID,83.7041,VALID,0,VALID,26.4082,VALID,287,VALID,0.483594,
2012-05-20, 01:09:04,VALID,1003.24,VALID,0,VALID,83.5591,VALID,0,VALID,26.3673,VALID,293,VALID,0.735937,
2012-05-20, 01:10:04,VALID,1003.21,VALID,0,VALID,83.0556,VALID,0.0815089,VALID,26.3887,VALID,293,VALID,1.45234,
2012-05-20, 01:11:04,VALID,1003.22,VALID,0,VALID,83.0861,VALID,0,VALID,26.4102,VALID,297,VALID,1.09297,
2012-05-20, 01:12:04,VALID,1003.2,VALID,0,VALID,82.6437,VALID,0,VALID,26.4472,VALID,343,VALID,0.497656,
2012-05-20, 01:13:04,VALID,1003.17,VALID,0,VALID,82.2164,VALID,0,VALID,26.4881,VALID,298,VALID,1.02969,
2012-05-20, 01:14:04,VALID,1003.18,VALID,0,VALID,81.7816,VALID,0,VALID,26.5056,VALID,283,VALID,1.74766,
2012-05-20, 01:15:04,VALID,1003.15,VALID,0,VALID,81.6672,VALID,0,VALID,26.5466,VALID,303,VALID,0.835938,
2012-05-20, 01:16:04,VALID,1003.15,VALID,0,VALID,81.3239,VALID,0,VALID,26.5641,VALID,298,VALID,2.05195,
2012-05-20, 01:17:04,VALID,1003.14,VALID,0,VALID,81.3315,VALID,0.0815089,VALID,26.5815,VALID,286,VALID,1.14023,
2012-05-20, 01:18:04,VALID,1003.13,VALID,0,VALID,81.1026,VALID,0,VALID,26.603,VALID,285,VALID,1.62891,
2012-05-20, 01:19:04,VALID,1003.1,VALID,0,VALID,81.0263,VALID,0,VALID,26.603,VALID,294,VALID,1.04844,
2012-05-20, 01:20:04,VALID,1003.11,VALID,0,VALID,81.423,VALID,0,VALID,26.5815,VALID,341,VALID,0.739062,
2012-05-20, 01:21:04,VALID,1003.11,VALID,0,VALID,81.156,VALID,0,VALID,26.5835,VALID,312,VALID,1.09883,
2012-05-20, 01:22:04,VALID,1003.09,VALID,0,VALID,81.0187,VALID,0.0815089,VALID,26.5855,VALID,320,VALID,1.07813,
2012-05-20, 01:23:04,VALID,1003.07,VALID,0,VALID,81.2094,VALID,0.0815089,VALID,26.5835,VALID,319,VALID,0.408984,
2012-05-20, 01:24:04,VALID,1003.06,VALID,0,VALID,81.2018,VALID,0.0815089,VALID,26.5641,VALID,317,VALID,1.57461,
2012-05-20, 01:25:04,VALID,1003.05,VALID,0,VALID,81.1484,VALID,0.0815089,VALID,26.5426,VALID,292,VALID,1.12383,
2012-05-20, 01:26:04,VALID,1003.02,VALID,0,VALID,81.2323,VALID,0,VALID,26.5641,VALID,300,VALID,1.43359,
2012-05-20, 01:27:04,VALID,1003,VALID,0,VALID,81.3315,VALID,0,VALID,26.5426,VALID,300,VALID,0.980078,
2012-05-20, 01:28:04,VALID,1003,VALID,0,VALID,81.2628,VALID,0.0815089,VALID,26.5835,VALID,329,VALID,0.708594,
2012-05-20, 01:29:04,VALID,1002.96,VALID,0,VALID,81.2705,VALID,0,VALID,26.5641,VALID,1,VALID,0.553906,
2012-05-20, 01:30:04,VALID,1002.95,VALID,0,VALID,81.4383,VALID,0.0815089,VALID,26.5446,VALID,284,VALID,0.535937,
2012-05-20, 01:31:04,VALID,1002.93,VALID,0,VALID,81.568,VALID,0,VALID,26.5661,VALID,291,VALID,0.898828,
2012-05-20, 01:32:04,VALID,1002.92,VALID,0,VALID,81.5527,VALID,0.0815089,VALID,26.5641,VALID,304,VALID,1.13086,
2012-05-20, 01:33:04,VALID,1002.91,VALID,0,VALID,81.4841,VALID,0.0815089,VALID,26.5835,VALID,293,VALID,1.90352,
2012-05-20, 01:34:04,VALID,1002.91,VALID,0,VALID,81.568,VALID,0.0815089,VALID,26.5815,VALID,354,VALID,0.308594,
2012-05-20, 01:35:04,VALID,1002.88,VALID,0,VALID,81.507,VALID,0.0815089,VALID,26.5835,VALID,10,VALID,0.342187,
2012-05-20, 01:36:04,VALID,1002.85,VALID,0,VALID,81.6519,VALID,0,VALID,26.5251,VALID,352,VALID,0.907422,
2012-05-20, 01:37:04,VALID,1002.86,VALID,0,VALID,81.7587,VALID,0.0815089,VALID,26.4667,VALID,354,VALID,0.802344,
2012-05-20, 01:38:04,VALID,1002.86,VALID,0,VALID,82.0944,VALID,0.0815089,VALID,26.4082,VALID,340,VALID,0.73125,
2012-05-20, 01:39:04,VALID,1002.82,VALID,0,VALID,82.514,VALID,0,VALID,26.3323,VALID,346,VALID,0.320313,
2012-05-20, 01:40:04,VALID,1002.82,VALID,0,VALID,82.4301,VALID,0,VALID,26.2739,VALID,348,VALID,0.654688,
2012-05-20, 01:41:04,VALID,1002.82,VALID,0,VALID,82.6665,VALID,0,VALID,26.2544,VALID,349,VALID,0.170312,
2012-05-20, 01:42:04,VALID,1002.81,VALID,0,VALID,82.7962,VALID,0,VALID,26.2349,VALID,349,VALID,0.322656,
2012-05-20, 01:43:04,VALID,1002.78,VALID,0,VALID,82.8496,VALID,0,VALID,26.1959,VALID,346,VALID,0.252344,
2012-05-20, 01:44:04,VALID,1002.8,VALID,0,VALID,82.9946,VALID,0,VALID,26.1765,VALID,335,VALID,0.152734,
2012-05-20, 01:45:04,VALID,1002.79,VALID,0,VALID,83.048,VALID,0,VALID,26.157,VALID,1,VALID,0.54375,
2012-05-20, 01:46:04,VALID,1002.75,VALID,0,VALID,83.1548,VALID,0,VALID,26.157,VALID,352,VALID,0.825781,
2012-05-20, 01:47:04,VALID,1002.75,VALID,0,VALID,83.048,VALID,0,VALID,26.1375,VALID,339,VALID,0.403906,
2012-05-20, 01:48:04,VALID,1002.72,VALID,0,VALID,83.1472,VALID,0,VALID,26.118,VALID,339,VALID,0.540625,
2012-05-20, 01:49:04,VALID,1002.71,VALID,0,VALID,83.2006,VALID,0,VALID,26.12,VALID,336,VALID,0.440625,
2012-05-20, 01:50:04,VALID,1002.69,VALID,0,VALID,83.2769,VALID,0,VALID,26.0985,VALID,333,VALID,0.338672,
2012-05-20, 01:51:04,VALID,1002.67,VALID,0,VALID,83.2311,VALID,0,VALID,26.0985,VALID,353,VALID,0.772266,
2012-05-20, 01:52:04,VALID,1002.69,VALID,0,VALID,83.254,VALID,0,VALID,26.0985,VALID,347,VALID,0.954687,
2012-05-20, 01:53:04,VALID,1002.65,VALID,0,VALID,83.2311,VALID,0,VALID,26.118,VALID,352,VALID,0.301953,
2012-05-20, 01:54:04,VALID,1002.64,VALID,0,VALID,83.3531,VALID,0,VALID,26.1335,VALID,317,VALID,0.560156,
2012-05-20, 01:55:04,VALID,1002.61,VALID,0,VALID,83.2235,VALID,0.0815089,VALID,26.155,VALID,312,VALID,0.185547,
2012-05-20, 01:56:04,VALID,1002.6,VALID,0,VALID,83.2082,VALID,0,VALID,26.155,VALID,333,VALID,0.497656,
2012-05-20, 01:57:04,VALID,1002.6,VALID,0,VALID,83.1014,VALID,0,VALID,26.155,VALID,335,VALID,0.419531,
2012-05-20, 01:58:04,VALID,1002.59,VALID,0,VALID,83.2158,VALID,0.0815089,VALID,26.155,VALID,283,VALID,0.548828,
2012-05-20, 01:59:04,VALID,1002.59,VALID,0,VALID,83.1548,VALID,0,VALID,26.155,VALID,348,VALID,1.10703,
2012-05-20, 02:00:04,VALID,1002.6,VALID,0,VALID,83.3074,VALID,0,VALID,26.155,VALID,334,VALID,0.800391,
2012-05-20, 02:01:04,VALID,1002.59,VALID,0,VALID,83.4371,VALID,0.0815089,VALID,26.155,VALID,282,VALID,0.258203,
2012-05-20, 02:02:04,VALID,1002.6,VALID,0,VALID,83.521,VALID,0,VALID,26.155,VALID,282,VALID,0.05,
2012-05-20, 02:03:04,VALID,1002.6,VALID,0,VALID,83.5134,VALID,0,VALID,26.1355,VALID,276,VALID,0.503516,
2012-05-20, 02:04:04,VALID,1002.61,VALID,0,VALID,83.46,VALID,0,VALID,26.155,VALID,293,VALID,0.307031,
2012-05-20, 02:05:04,VALID,1002.61,VALID,0,VALID,83.6049,VALID,0,VALID,26.1355,VALID,355,VALID,1.1375,
2012-05-20, 02:06:04,VALID,1002.63,VALID,0,VALID,83.7117,VALID,0,VALID,26.1355,VALID,353,VALID,0.21875,
2012-05-20, 02:07:04,VALID,1002.62,VALID,0,VALID,83.582,VALID,0,VALID,26.116,VALID,297,VALID,0.803906,
2012-05-20, 02:08:04,VALID,1002.57,VALID,0,VALID,83.7498,VALID,0.0815089,VALID,26.1141,VALID,275,VALID,0.651953,
2012-05-20, 02:09:04,VALID,1002.58,VALID,0,VALID,83.7651,VALID,0,VALID,26.1784,VALID,301,VALID,0.419141,
2012-05-20, 02:10:04,VALID,1002.58,VALID,0,VALID,83.6507,VALID,0,VALID,26.1765,VALID,295,VALID,0.716406,
2012-05-20, 02:11:04,VALID,1002.59,VALID,0,VALID,83.7956,VALID,0,VALID,26.1765,VALID,282,VALID,0.562109,
2012-05-20, 02:12:04,VALID,1002.57,VALID,0,VALID,83.643,VALID,0,VALID,26.1765,VALID,292,VALID,0.792578,
2012-05-20, 02:13:04,VALID,1002.55,VALID,0,VALID,83.8643,VALID,0,VALID,26.157,VALID,287,VALID,0.202734,
2012-05-20, 02:14:04,VALID,1002.54,VALID,0,VALID,83.9329,VALID,0,VALID,26.1765,VALID,287,VALID,0.0265625,
2012-05-20, 02:15:04,VALID,1002.51,VALID,0,VALID,84.0245,VALID,0,VALID,26.157,VALID,341,VALID,0.404297,
2012-05-20, 02:16:04,VALID,1002.48,VALID,0,VALID,84.2076,VALID,0,VALID,26.1375,VALID,336,VALID,0.48125,
2012-05-20, 02:17:04,VALID,1002.5,VALID,0,VALID,84.2228,VALID,0,VALID,26.157,VALID,339,VALID,0.0175781,
2012-05-20, 02:18:04,VALID,1002.5,VALID,0,VALID,84.2991,VALID,0,VALID,26.116,VALID,339,VALID,0.0167969,
2012-05-20, 02:19:04,VALID,1002.48,VALID,0,VALID,84.2762,VALID,0,VALID,26.1395,VALID,288,VALID,0.885156,
2012-05-20, 02:20:04,VALID,1002.49,VALID,0,VALID,84.4364,VALID,0,VALID,26.118,VALID,273,VALID,0.391797,
2012-05-20, 02:21:04,VALID,1002.47,VALID,0,VALID,84.467,VALID,0,VALID,26.1375,VALID,308,VALID,0.454297,
2012-05-20, 02:22:04,VALID,1002.47,VALID,0,VALID,84.5967,VALID,0,VALID,26.1375,VALID,309,VALID,0.239844,
2012-05-20, 02:23:04,VALID,1002.47,VALID,0,VALID,84.6577,VALID,0,VALID,26.118,VALID,284,VALID,0.408594,
2012-05-20, 02:24:04,VALID,1002.49,VALID,0,VALID,84.9094,VALID,0.0815089,VALID,26.1355,VALID,302,VALID,0.624609,
2012-05-20, 02:25:04,VALID,1002.47,VALID,0,VALID,84.6348,VALID,0,VALID,26.194,VALID,319,VALID,0.136719,
2012-05-20, 02:26:04,VALID,1002.47,VALID,0,VALID,84.6729,VALID,0.0815089,VALID,26.194,VALID,311,VALID,0.33125,
2012-05-20, 02:27:04,VALID,1002.46,VALID,0,VALID,84.5356,VALID,0.0815089,VALID,26.2134,VALID,2,VALID,0.685156,
2012-05-20, 02:28:04,VALID,1002.48,VALID,0,VALID,84.6195,VALID,0.0815089,VALID,26.2134,VALID,355,VALID,0.202344,
2012-05-20, 02:29:04,VALID,1002.47,VALID,0,VALID,84.6653,VALID,0.0815089,VALID,26.192,VALID,331,VALID,0.469141,
2012-05-20, 02:30:04,VALID,1002.45,VALID,0,VALID,84.7187,VALID,0.0815089,VALID,26.194,VALID,344,VALID,0.300391,
2012-05-20, 02:31:04,VALID,1002.43,VALID,0,VALID,84.795,VALID,0.0815089,VALID,26.194,VALID,336,VALID,0.300781,
2012-05-20, 02:32:04,VALID,1002.43,VALID,0,VALID,84.9705,VALID,0.0815089,VALID,26.153,VALID,303,VALID,0,
2012-05-20, 02:33:04,VALID,1002.39,VALID,0,VALID,84.9781,VALID,0.0815089,VALID,26.155,VALID,305,VALID,0.350781,
2012-05-20, 02:34:04,VALID,1002.38,VALID,0,VALID,85.0468,VALID,0,VALID,26.155,VALID,338,VALID,0.287891,
2012-05-20, 02:35:04,VALID,1002.37,VALID,0,VALID,85.1002,VALID,0,VALID,26.1355,VALID,346,VALID,0.169531,
2012-05-20, 02:36:04,VALID,1002.37,VALID,0,VALID,85.1383,VALID,0.0815089,VALID,26.1355,VALID,347,VALID,0.4,
2012-05-20, 02:37:04,VALID,1002.34,VALID,0,VALID,85.1459,VALID,0,VALID,26.116,VALID,342,VALID,0.331641,
2012-05-20, 02:38:04,VALID,1002.32,VALID,0,VALID,85.062,VALID,0,VALID,26.116,VALID,21,VALID,0.359375,
2012-05-20, 02:39:04,VALID,1002.31,VALID,0,VALID,85.3519,VALID,0,VALID,26.0985,VALID,20,VALID,0.23125,
2012-05-20, 02:40:04,VALID,1002.25,VALID,0,VALID,85.3519,VALID,0,VALID,26.0966,VALID,335,VALID,0.309375,
2012-05-20, 02:41:04,VALID,1002.27,VALID,0,VALID,85.3367,VALID,0,VALID,26.0985,VALID,23,VALID,0.460547,
2012-05-20, 02:42:04,VALID,1002.21,VALID,0,VALID,85.3519,VALID,0,VALID,26.118,VALID,23,VALID,0.028125,
2012-05-20, 02:43:04,VALID,1002.18,VALID,0,VALID,85.3519,VALID,0,VALID,26.0791,VALID,354,VALID,0.839844,
2012-05-20, 02:44:04,VALID,1002.16,VALID,0,VALID,85.329,VALID,0,VALID,26.0791,VALID,6,VALID,0.625,
2012-05-20, 02:45:04,VALID,1002.13,VALID,0,VALID,85.3061,VALID,0,VALID,26.0791,VALID,307,VALID,0.784375,
2012-05-20, 02:46:04,VALID,1002.07,VALID,0,VALID,85.2146,VALID,0,VALID,26.0791,VALID,335,VALID,0.465234,
2012-05-20, 02:47:04,VALID,1002.05,VALID,0,VALID,85.1917,VALID,0,VALID,26.1005,VALID,310,VALID,0.853906,
2012-05-20, 02:48:04,VALID,1002.04,VALID,0,VALID,85.1917,VALID,0,VALID,26.0985,VALID,314,VALID,0.608203,
2012-05-20, 02:49:04,VALID,1001.99,VALID,0,VALID,85.3595,VALID,0,VALID,26.0791,VALID,270,VALID,0.121094,
2012-05-20, 02:50:04,VALID,1001.96,VALID,0,VALID,85.3824,VALID,0,VALID,26.0596,VALID,291,VALID,0.379297,
2012-05-20, 02:51:04,VALID,1001.95,VALID,0,VALID,85.474,VALID,0,VALID,26.0596,VALID,325,VALID,0.0121094,
2012-05-20, 02:52:04,VALID,1001.96,VALID,0,VALID,85.4435,VALID,0,VALID,26.0206,VALID,284,VALID,1.08789,
2012-05-20, 02:53:04,VALID,1001.95,VALID,0,VALID,85.4129,VALID,0,VALID,26.0401,VALID,300,VALID,0.83125,
2012-05-20, 02:54:04,VALID,1001.93,VALID,0,VALID,85.4282,VALID,0,VALID,26.0596,VALID,304,VALID,0.684375,
2012-05-20, 02:55:04,VALID,1001.94,VALID,0,VALID,85.5045,VALID,0,VALID,26.0596,VALID,329,VALID,0.245703,
2012-05-20, 02:56:04,VALID,1001.96,VALID,0,VALID,85.6723,VALID,0,VALID,26.0401,VALID,354,VALID,1.47227,
2012-05-20, 02:57:04,VALID,1001.96,VALID,0,VALID,85.6342,VALID,0,VALID,26.0206,VALID,354,VALID,1.15937,
2012-05-20, 02:58:04,VALID,1001.99,VALID,0,VALID,85.7181,VALID,0,VALID,26.0012,VALID,332,VALID,0.773047,
2012-05-20, 02:59:04,VALID,1002.01,VALID,0,VALID,85.947,VALID,0,VALID,26.0031,VALID,316,VALID,0.513281,
2012-05-20, 03:00:04,VALID,1002.04,VALID,0,VALID,86.1224,VALID,0,VALID,26.0012,VALID,239,VALID,0.427734,
2012-05-20, 03:01:04,VALID,1002.01,VALID,0,VALID,86.275,VALID,0,VALID,25.9817,VALID,224,VALID,0.0417969,
2012-05-20, 03:02:04,VALID,1001.98,VALID,0,VALID,86.1758,VALID,0,VALID,25.9622,VALID,329,VALID,1.26836,
2012-05-20, 03:03:04,VALID,1001.98,VALID,0,VALID,85.7028,VALID,0,VALID,25.9817,VALID,283,VALID,1.75039,
2012-05-20, 03:04:04,VALID,1001.96,VALID,0,VALID,85.1307,VALID,0,VALID,26.0596,VALID,302,VALID,1.26992,
2012-05-20, 03:05:04,VALID,1001.93,VALID,0,VALID,84.5738,VALID,0,VALID,26.159,VALID,228,VALID,1.11172,
2012-05-20, 03:06:04,VALID,1001.92,VALID,0,VALID,84.6195,VALID,0,VALID,26.1765,VALID,349,VALID,0.340625,
2012-05-20, 03:07:04,VALID,1001.92,VALID,0,VALID,84.4746,VALID,0,VALID,26.194,VALID,277,VALID,0.658203,
2012-05-20, 03:08:04,VALID,1001.87,VALID,0,VALID,84.5509,VALID,0,VALID,26.2564,VALID,299,VALID,0.957031,
2012-05-20, 03:09:04,VALID,1001.86,VALID,0,VALID,84.1847,VALID,0,VALID,26.2719,VALID,269,VALID,1.12344,
2012-05-20, 03:10:04,VALID,1001.86,VALID,0,VALID,83.6888,VALID,0.0815089,VALID,26.3283,VALID,281,VALID,0.830859,
2012-05-20, 03:11:04,VALID,1001.83,VALID,0,VALID,83.5515,VALID,0.0815089,VALID,26.4082,VALID,305,VALID,0.706641,
2012-05-20, 03:12:04,VALID,1001.78,VALID,0,VALID,83.5668,VALID,0.0815089,VALID,26.4277,VALID,297,VALID,0.848437,
2012-05-20, 03:13:04,VALID,1001.8,VALID,0,VALID,83.6354,VALID,0,VALID,26.3867,VALID,303,VALID,0.517187,
2012-05-20, 03:14:04,VALID,1001.77,VALID,0,VALID,83.376,VALID,0.0815089,VALID,26.4082,VALID,293,VALID,1.70703,
2012-05-20, 03:15:04,VALID,1001.76,VALID,0,VALID,83.0861,VALID,0.0815089,VALID,26.3867,VALID,277,VALID,0.909766,
2012-05-20, 03:16:04,VALID,1001.74,VALID,0,VALID,82.6055,VALID,0.0815089,VALID,26.4646,VALID,294,VALID,0.623438,
2012-05-20, 03:17:04,VALID,1001.73,VALID,0,VALID,81.362,VALID,0.0815089,VALID,26.562,VALID,269,VALID,1.7168,
2012-05-20, 03:18:04,VALID,1001.73,VALID,0,VALID,80.4465,VALID,0.0815089,VALID,26.7589,VALID,247,VALID,1.14258,
2012-05-20, 03:19:04,VALID,1001.68,VALID,0,VALID,79.8057,VALID,0.0815089,VALID,26.8757,VALID,244,VALID,0.8625,
2012-05-20, 03:20:04,VALID,1001.73,VALID,0,VALID,79.3785,VALID,0.0815089,VALID,26.9906,VALID,217,VALID,0.489453,
2012-05-20, 03:21:04,VALID,1001.72,VALID,0,VALID,79.0428,VALID,0.0815089,VALID,27.088,VALID,251,VALID,1.6793,
2012-05-20, 03:22:04,VALID,1001.73,VALID,0,VALID,78.8216,VALID,0.0815089,VALID,27.1875,VALID,274,VALID,1.17695,
2012-05-20, 03:23:04,VALID,1001.73,VALID,0,VALID,78.1197,VALID,0.0815089,VALID,27.2438,VALID,308,VALID,0.921094,
2012-05-20, 03:24:04,VALID,1001.78,VALID,0,VALID,77.9672,VALID,0.0815089,VALID,27.3023,VALID,219,VALID,0.585547,
2012-05-20, 03:25:04,VALID,1001.76,VALID,0,VALID,77.9214,VALID,0.0815089,VALID,27.3607,VALID,292,VALID,0.948047,
2012-05-20, 03:26:04,VALID,1001.8,VALID,0,VALID,77.7764,VALID,0.0815089,VALID,27.3802,VALID,170,VALID,0.753125,
2012-05-20, 03:27:04,VALID,1001.78,VALID,0,VALID,77.8527,VALID,0.0815089,VALID,27.3997,VALID,317,VALID,0.892578,
2012-05-20, 03:28:04,VALID,1001.76,VALID,0,VALID,77.1738,VALID,0,VALID,27.4408,VALID,232,VALID,1.48516,
2012-05-20, 03:29:04,VALID,1001.78,VALID,0,VALID,77.2348,VALID,0,VALID,27.4992,VALID,173,VALID,1.20742,
2012-05-20, 03:30:04,VALID,1001.79,VALID,0,VALID,77.1509,VALID,0.0815089,VALID,27.4992,VALID,254,VALID,1.86602,
2012-05-20, 03:31:04,VALID,1001.79,VALID,0,VALID,76.655,VALID,0.0815089,VALID,27.5577,VALID,287,VALID,1.19258,
2012-05-20, 03:32:04,VALID,1001.81,VALID,0,VALID,76.6779,VALID,0.0815089,VALID,27.5166,VALID,306,VALID,1.0207,
2012-05-20, 03:33:04,VALID,1001.8,VALID,0,VALID,76.7313,VALID,0.0815089,VALID,27.5772,VALID,289,VALID,1.49492,
2012-05-20, 03:34:04,VALID,1001.82,VALID,0,VALID,76.182,VALID,0.0815089,VALID,27.5772,VALID,248,VALID,1.93125,
2012-05-20, 03:35:04,VALID,1001.84,VALID,0,VALID,76.0752,VALID,0,VALID,27.6161,VALID,291,VALID,1.37734,
2012-05-20, 03:36:04,VALID,1001.87,VALID,0,VALID,76.0065,VALID,0.0815089,VALID,27.6551,VALID,278,VALID,2.10586,
2012-05-20, 03:37:04,VALID,1001.85,VALID,0,VALID,74.9614,VALID,0.0815089,VALID,27.6746,VALID,274,VALID,1.69805,
2012-05-20, 03:38:04,VALID,1001.79,VALID,0,VALID,74.8164,VALID,0.0815089,VALID,27.7136,VALID,261,VALID,1.53086,
2012-05-20, 03:39:04,VALID,1001.79,VALID,0,VALID,74.8622,VALID,0,VALID,27.7157,VALID,241,VALID,1.35,
2012-05-20, 03:40:04,VALID,1001.81,VALID,0,VALID,74.8698,VALID,0,VALID,27.7546,VALID,207,VALID,1.17539,
2012-05-20, 03:41:04,VALID,1001.81,VALID,0,VALID,74.908,VALID,0,VALID,27.7546,VALID,188,VALID,0.773438,